Regional Weather Roundup
Issued by NWS

Home | Current Version | Previous Version | Text Only | Print | Product List | Glossary Off
Versions: 1 2 3 4 5 6 7 8 9 10 11 12 13 14 15 16 17 18 19 20 21 22 23 24 25 26 27 28 29 30 31 32 33 34 35 36 37 38 39 40 41 42 43 44 45 46 47 48 49 50

000
ASUS43 KFSD 291510
RWRSD

WEATHER ROUNDUP FOR SOUTH DAKOTA
NATIONAL WEATHER SERVICE SIOUX FALLS SD
1000 AM CDT FRI AUG 29 2014

NOTE: "FAIR" INDICATES FEW OR NO CLOUDS BELOW 12,000 FEET WITH NO
SIGNIFICANT WEATHER AND/OR OBSTRUCTIONS TO VISIBILITY.


SDZ001>005-009-010-012>017-291600-
NORTHWEST AND NORTH CENTRAL SOUTH DAKOTA

CITY           SKY/WX    TMP DP  RH WIND       PRES   REMARKS
BUFFALO          N/A     67  52  58 NW20G30   29.93R
FAITH            N/A     67  60  78 N23       29.91R
MOBRIDGE       CLOUDY    65  65 100 NW6       29.81R
$$

SDZ012>016-024>037-041>051-057-063-072>074-291600-
SOUTHWEST AND SOUTH CENTRAL SOUTH DAKOTA

CITY           SKY/WX    TMP DP  RH WIND       PRES   REMARKS
RAPID CTY ARPT MOSUNNY   71  53  52 N36G44    29.97R
PIERRE         FOG       65  65 100 CALM      29.82S VSB<1/4
CUSTER         MOSUNNY   65  47  52 N12G20    30.08S
ELLSWORTH AFB  MOSUNNY   70  54  56 N31G40    29.97R
PHILIP         SUNNY     70  58  65 NW13G21   29.88S
PINE RIDGE     MOSUNNY   65  57  75 SW8       29.99R
WINNER         FAIR      71  64  78 NW6       29.85S
$$

SDZ004>011-016>023-039-040-291600-
NORTHEAST SOUTH DAKOTA

CITY           SKY/WX    TMP DP  RH WIND       PRES   REMARKS
ABERDEEN       CLOUDY    65  65 100 NW10      29.80R
WATERTOWN      CLOUDY    66  66 100 N7        29.79S
SISSETON         N/A     68  67  96 NW5       29.78R
$$

SDZ017-020-022-023-036>040-048>070-291600-
SOUTHEAST SOUTH DAKOTA

CITY           SKY/WX    TMP DP  RH WIND       PRES   REMARKS
SIOUX FALLS    CLOUDY    70  68  93 S5        29.79S
HURON          CLOUDY    69  67  93 NW9       29.79R
CHAMBERLAIN    CLOUDY    66  65  96 NW8       29.83S
MITCHELL       CLOUDY    70  69  97 W6        29.80R FOG
YANKTON        CLOUDY    70  68  94 W6        29.79F
$$

ABBREVIATIONS USED IN REMARKS
   TC - TEMPERATURE IN CELSIUS
  WCI - WIND CHILL INDEX
   HX - HEAT INDEX
  VSB - VISIBILITY



USA.gov is the U.S. government's official web portal to all federal, state and local government web resources and services.